Simultaneous Nadir Overpasses (SNOs) Predictions

Prediction of SNOs between AQUA and NPP Satellite Orbit:

Table of predicted SNOs for the next 14.0 days since TLE Epoch: 8/6/2022
Index Date (AQUA) Time (AQUA) Lat,Lon (AQUA) SZA (AQUA ) Date (NPP) Time (NPP) Lat,Lon (NPP) SZA (NPP ) Distance(km) Time Diff (sec)
1 08/07/2022 06:34:34 -78.40, 150.91 101.78 08/07/2022 06:33:59 -78.41, 151.02 101.78 2.66 35
2 08/07/2022 07:23:48 78.87, -38.91 77.59 08/07/2022 07:24:31 78.88, -38.78 77.53 2.81 43
3 08/09/2022 22:01:00 78.35, 99.04 79.02 08/09/2022 22:00:12 78.35, 99.15 79.03 2.78 48
4 08/09/2022 22:50:18 -78.72, -91.33 101.49 08/09/2022 22:50:48 -78.72, -91.32 101.51 0.14 30
5 08/12/2022 13:27:29 -78.19, 46.67 100.03 08/12/2022 13:26:28 -78.19, 46.71 100.00 0.98 61
6 08/12/2022 14:16:42 78.70,-143.06 79.30 08/12/2022 14:16:59 78.70,-142.99 79.27 1.49 17
7 08/15/2022 04:53:58 77.97, -5.95 81.03 08/15/2022 04:52:45 77.96, -6.05 81.10 2.46 73
8 08/15/2022 05:43:10 -78.62, 164.93 99.83 08/15/2022 05:43:14 -78.62, 164.96 99.84 0.53 4
9 08/17/2022 21:09:37 78.49, 112.62 81.15 08/17/2022 21:09:29 78.48, 112.55 81.18 1.73 8



Historial Predications of SNOs between AQUA and NPP
